Location: Newark
(46.9000°N, 28.3500°E)
Time: 16:24:08
(UTC+00:00)

Vanguard 1 Rocket - Pass Details

Date: 26 August 2019
Orbit: 650 x 4226 km, 34.3° (Epoch: 23 October)

Event Time Altitude Azimuth Distance (km) Brightness Sun altitude
Rises 23:26:28 0° 226° (SW) 3,114 - -30.3°
Reaches altitude 10° 23:29:51 10° 201° (SSW) 2,056 - -30.0°
Maximum altitude 23:32:18 15° 166° (SSE) 1,761 - -29.9°
Drops below altitude 10° 23:34:49 10° 132° (SE) 2,117 - -29.7°
Exits shadow 23:37:07 - 113° (ESE) 2,819 9.9 -29.5°
Sets 23:38:23 0° 107° (ESE) 3,273 10.4 -29.4°
